Home > Weather > Halifax > Past weeks

Flag for Canada Past Weather in Halifax, Nova Scotia, Canada — Yesterday and Last 2 Weeks

Now
52 °F

Scattered clouds.


Feels Like: 47 °F
Forecast: 44 / 57 °F
Wind: 16 mph from North

Location: Halifax International Airport

Current Time: May 28, 2016 at 9:07:58 PM

Latest Report: May 28, 2016 at 8:00 PM


Visibility: 15 mi

Pressure: 30.16 "Hg

Humidity: 77%

Dew Point: 45 °F

Location of HalifaxLocation

Past Weather in Halifax — Graph

°F

Halifax Temperature Yesterday

Maximum temperature yesterday: 55 °F (at 1:00 PM)
Minimum temperature yesterday: 43 °F (at 2:00 AM)
Average temperature yesterday: 47 °F

High & Low Weather Summary for the Past Weeks

 TemperatureHumidityPressure
High79 °F (May 21, 2:00 PM)100% (May 14, 1:47 AM)30.26 "Hg (May 14, 1:47 AM)
Low37 °F (May 16, 9:00 PM)22% (May 21, 5:00 PM)29.48 "Hg (May 15, 7:00 PM)
Average53 °F80%29.93 "Hg
* Reported May 13 7:00 PM — May 28 7:00 PM, Halifax, Weather by CustomWeather, © 2016

Note: Actual official high and low records may vary slightly from our data, if they occured in-between our weather recording intervals... More about our weather records

Advertising

Halifax Weather History for the Previous 24 Hours

Scroll right to see more
 ConditionsComfort  
Time TempWeatherWind HumidityBarometerVisibility
7:00 PM
Sat, May 28
54 °FScattered clouds.14 mph82%30.15 "Hg15 mi
6:00 PM55 °FPartly sunny.21 mph82%30.11 "Hg15 mi
5:00 PM59 °FLow clouds.15 mph88%30.09 "Hg15 mi
4:00 PM63 °FOvercast.17 mph83%30.06 "Hg15 mi
3:50 PM63 °FOvercast.13 mph83%30.05 "Hg15 mi
3:00 PM66 °FPartly sunny.14 mph78%30.04 "Hg15 mi
2:00 PM66 °FMostly cloudy.9 mph78%30.03 "Hg15 mi
1:00 PM63 °FLow clouds.9 mph88%30.03 "Hg15 mi
12:00 PM59 °FLow clouds.6 mph94%30.03 "Hg15 mi
11:00 AM55 °FFog.5 mph94%30.03 "Hg3 mi
10:00 AM52 °FFog.3 mph100%30.03 "Hg1 mi
9:00 AM50 °FFog.6 mph100%30.04 "Hg1 mi
8:51 AM50 °FFog.6 mph100%30.04 "Hg1 mi
8:00 AM48 °FFog.6 mph100%30.02 "Hg1 mi
7:00 AM46 °FFog.5 mph100%30.04 "Hg0 mi
6:00 AM46 °FFog.6 mph100%30.01 "Hg1 mi
5:00 AM46 °FFog.8 mph100%30.01 "Hg1 mi
4:48 AM46 °FFog.13 mph100%29.99 "Hg1 mi
4:00 AM46 °FThunderstorms. Fog.6 mph100%30.05 "Hg1 mi
3:51 AM46 °FThunderstorms. Fog.5 mph100%30.07 "Hg1 mi
3:00 AM46 °FFog.5 mph100%30.09 "Hg1 mi
2:00 AM46 °FFog.10 mph100%30.04 "Hg1 mi
1:00 AM46 °FFog.10 mph100%30.07 "Hg2 mi
12:00 AM46 °FFog.9 mph100%30.10 "Hg1 mi
11:00 PM
Fri, May 27
46 °FFog.12 mph93%30.11 "Hg5 mi
10:00 PM46 °FMostly cloudy.10 mph93%30.13 "Hg8 mi
9:00 PM46 °FLow clouds.10 mph93%30.15 "Hg10 mi
Weather by CustomWeather, © 2016

See weather overviewHow to use our weather pages